Regional Weather Roundup
Issued by NWS Charleston, SC

Current Version | Previous Version | Graphics & Text | Print | Product List | Glossary On
Versions: 1 2 3 4 5 6 7 8 9 10 11 12 13 14 15 16 17 18 19 20 21 22 23 24 25 26 27 28 29 30 31 32 33 34 35 36 37 38 39 40 41 42 43 44 45 46 47 48 49 50
000
ASUS42 KCHS 210310
RWRCHS

REGIONAL WEATHER ROUNDUP
NATIONAL WEATHER SERVICE CHARLESTON SC
1100 PM EDT WED AUG 20 2014

NOTE: "FAIR" INDICATES FEW OR NO CLOUDS BELOW 12,000 FEET WITH NO
SIGNIFICANT WEATHER AND/OR OBSTRUCTIONS TO VISIBILITY.

NOT ALL STATIONS ARE QUALITY CONTROLLED BY THE NATIONAL
WEATHER SERVICE. USE DATA WITH CAUTION...ESPECIALLY
DEWPOINT OBSERVATIONS.

SCZ027-030-031-034>040-042>050-210400-
...SOUTH CAROLINA...

CITY           SKY/WX    TMP DP  RH WIND       PRES   REMARKS
N CHARLESTON   MOCLDY    84  78  82 SW6       30.04R HX  95
WATERFRONT PRK   N/A     84 N/A N/A SW5         N/A
FORT JOHNSON   NOT AVBL
MOUNT PLEASANT FAIR      81  79  94 CALM      30.03R FOG
JOHNS ISLAND   CLEAR     82  81  94 CALM      30.04R HX  95
PINOPOLIS        N/A     88  75  66 SW2       29.96R HX  97
MONCKS CORNER    N/A     79  79 100 CALM      30.03R
SUMMERVILLE    FAIR      79  79 100 CALM      30.04R
BEAUFORT MCAS  CLOUDY    84  74  71 N5        30.04R HX  91
BEAUFORT ARPT  FAIR      84  79  84 W5        30.04R HX  96
HILTON HEAD IS CLOUDY    84  81  89 W5        30.06R HX  98
GEORGETOWN     NOT AVBL
WALTERBORO     MOCLDY    82  70  65 W3        30.05R
ORANGEBURG     PTCLDY    81  71  71 W3        30.04R
BARNWELL       FAIR      79  70  73 W6        30.06R
AIKEN          FAIR      79  72  78 W6        30.11R
MANNING        FAIR      79 N/A N/A CALM      30.03R
KINGSTREE      NOT AVBL
COLUMBIA       CLOUDY    85  69  58 W7        30.03R
SUMTER         CLOUDY    80  73  79 CALM      30.02R
FLORENCE       PTCLDY    80  74  81 CALM      30.03R
MYRTLE BEACH   CLEAR     82  75  78 CALM      30.03R
N MYRTLE BEACH CLEAR     80  78  94 SW3       30.02R

$$

GAZ063-065-086>088-099>101-113>116-118-119-134-136>141-150-210400-
...GEORGIA...

CITY           SKY/WX    TMP DP  RH WIND       PRES   REMARKS
SAVANNAH ARPT  CLOUDY    82  69  64 W7        30.05R
HUNTER AAF     CLOUDY    81  72  72 W5        30.03R
FORT STEWART   CLOUDY    77  71  83 W3        30.05R
STATESBORO     NOT AVBL
SYLVANIA       CLOUDY    78  73  86 CALM      30.06S
CLAXTON        FAIR      77  77 100 CALM      30.07R
THOMSON        CLOUDY    76  74  92 CALM      30.12R
AUGUSTA-BUSH   CLOUDY    75  69  81 CALM      30.06R
AUGUSTA-DANIEL CLOUDY    80  68  66 W7        30.08R
SWAINSBORO     FAIR      79  72  78 NW5       30.08S
VIDALIA          N/A     75  72  88 W3        30.07R
ALMA           CLOUDY    76  69  79 CALM      30.07R
WAYCROSS       MOCLDY    82  73  73 CALM      30.08R
JESUP            N/A     82  72  69 NW5       30.07R
BRUNSWICK      PTCLDY    81  72  74 W5        30.06R
SAINT SIMONS   PTCLDY    83  77  82 SW5       30.05R HX  92

$$

SCZ027-028-034-036>038-045-046-048>050-GAZ119-141-210400-
...LAKE AND SUPPLEMENTAL COASTAL OBSERVATIONS...

STATION/POSITION TIME  TEMP    WIND        PRES    WAVE   SWELL
                       AIR SEA DIR/SP/G            HT/PER HT/PER/DIR
                 (UTC) (F)     (DEG/KT/KT) (MB)    (FT/S) (FT/S/D)
UPR LAKE MARION  NOT AVBL
WINYAH BAY       0200   82     240/  2     1015.0S
LAKE MURRAY      0200   85     300/  5/  9 1016.6R
ACE BASIN NERRS  0200   82        CALM     1016.0S
FORT PULASKI     0300   84     290/ 10/ 12 1017.6R
SAPELO ISLAND    0200   85     160/  5     1017.0S

$$

ANZ835-935-AMZ111-154-330-350-352-354-374-450-454-472-210400-
...C-MAN AND BUOY OBSERVATIONS...

STATION/POSITION TIME  TEMP    WIND        PRES    WAVE   SWELL
                       AIR SEA DIR/SP/G            HT/PER HT/PER/DIR
                 (UTC) (F)     (DEG/KT/KT) (MB)    (FT/S) (FT/S/D)
FOLLY BEACH CMAN 0200   84     230/  7/ 10 1016.6R
BUOY 41004       0300   84 84  230/ 10/ 12 1016.5R   3/ 5   2/ 8
BUOY 41008       0300   85 85  200/ 14/ 16 1016.9R   2/ 3
5E ST. MARYS GA  0300      83                N/A     2/ 3
FRYING PAN BUOY  NOT AVBL
BUOY 41025       0300   78      CALM  /  2 1017.0R   2/ 6   2/ 20/ 6
CAPE LOOKOUT NC  0200   81     220/  4/  4 1016.1R
BUOY 41002       0218   81 81  250/ 10/ 12 1018.3R   4/ 6   3/260/ 6
BUOY 41010       0300   84 85  190/  8/ 10 1019.5R   2/ 8   2/110/ 8
BUOY 41012       NOT AVBL
ST AUGUSTINE FL  0300   80     190/  3/  3 1019.4R
CAPERS NEARSHORE 0200   85     250/ 12/ 14   N/A
FRIPP NEARSHORE  NOT AVBL


$$


USA.gov is the U.S. government's official web portal to all federal, state and local government web resources and services.